TITAN 3C TRANSTAGE DEB, 19518

Orbit data source: Space-Track

TITAN 3C TRANSTAGE DEB, 19518 is space debris in HEO originally from a launch on Tue, 21 Dec 1965 UTC launched from the Air Force Eastern Test Range (AFETR). Debris objects in space refer to the collection of defunct objects orbiting the Earth. Examples of debris include non-operational satellites, rocket bodies, and fragments generated from explosions, collisions, or faulty payload assembly.

Loading next visibility...
Identifier
19518, 1965-108Z
Orbit
HEO
Country
Flag of USUS
Related business
Manufacturer
Unknown
Mission
Spacecraft
Bus & Motor
Unknown
Mass
Unknown
Launch date (UTC)
1965-12-21 (60 years ago)
Launch vehicle
Unknown
Launch site
Air Force Eastern Test Range (AFETR)
Object type
Payload
Rocket body
Debris
Shape & HBR
Unknown shape, 0.1 m
Radar Cross Section
Medium (>0.1 m² and <1 m²)

Expand to show TLE details & history
Last TLE update: 7 hours ago

TLE from 7 hours ago
0 TITAN 3C TRANSTAGE DEB
1 19518U 65108Z   26121.71913715  .00000283  00000-0  18333-2 0  9993
2 19518  26.3702 290.6981 6656175  50.8914  10.4955  2.92180832343407
Epoch: 2026-05-01T17:15Z
TLE epoch observation values (Epoch: 2026-05-01T17:15:33.449Z)
Latitude
24.68283°
Longitude
-75.31932°
Altitude
2,223.572 km
Speed
8.569 km/s
True Right ascension
02h 52m 52s
True Declination
24° 34' 29"
Sunlit
Object was in daylight at epoch
Visualization orbit readout
Latitude
Unknown
Longitude
Unknown
Altitude
Unknown
Speed
Unknown
Apparent Right ascension
Unknown
Apparent Declination
Unknown
Sunlit
N/A
Visualization observer readout
Local Sidereal Time
07:36:55
Azimuth
Unknown
Elevation
Unknown
Doppler factor
Unknown
Orbital elements
Apogee altitude
28,053.057 km
Perigee altitude
534.128 km
Semi-major axis
20,671.729 km
Eccentricity
0.66562
Inclination
26.3702°
RAAN
290.6981°
Arg. of periapsis
50.8914°
True anomaly
59.92146°
Mean anomaly
10.4955°
Eccentric anomaly
28.96342°
Mean motion
0.73026 °/min
Orbital period
492.97 mins
BSTAR
0.0018333
Loading maneuver chart data...
Computing Atmospheric mass density...

Documentation

Showing up to 5 results
|